TimeMST,TemperatureF,Dew PointF,Humidity,Sea Level PressureIn,VisibilityMPH,Wind Direction,Wind SpeedMPH,Gust SpeedMPH,PrecipitationIn,Events,Conditions,WindDirDegrees,DateUTC
12:58 AM,63.9,33.3,32,30.01,10.0,North,5.8,-,N/A,,Clear,360,2012-11-04 07:58:00
1:58 AM,61.7,34.3,36,30.01,10.0,NNE,3.5,-,N/A,,Clear,20,2012-11-04 08:58:00
2:58 AM,58.5,35.2,42,30.01,10.0,NNE,3.5,-,N/A,,Clear,20,2012-11-04 09:58:00
3:58 AM,59.9,32.9,36,30.00,10.0,North,8.1,-,N/A,,Clear,360,2012-11-04 10:58:00
4:58 AM,58.6,33.3,38,30.01,10.0,NNE,5.8,-,N/A,,Clear,30,2012-11-04 11:58:00
5:58 AM,56.7,34.0,42,30.02,10.0,NNE,3.5,-,N/A,,Clear,20,2012-11-04 12:58:00
6:58 AM,57.4,32.2,39,30.04,10.0,East,2.3,-,N/A,,Clear,100,2012-11-04 13:58:00
7:58 AM,59.9,36.1,41,30.07,10.0,NNW,4.6,-,N/A,,Clear,330,2012-11-04 14:58:00
8:58 AM,67.5,36.7,32,30.08,10.0,NNW,1.2,-,N/A,,Clear,330,2012-11-04 15:58:00
9:58 AM,72.3,34.0,25,30.08,10.0,Variable,1.2,-,N/A,,Clear,0,2012-11-04 16:58:00
10:58 AM,76.5,34.5,22,30.08,10.0,SSE,2.3,-,N/A,,Clear,160,2012-11-04 17:58:00
11:58 AM,81.9,35.2,19,30.05,10.0,SSW,2.3,-,N/A,,Clear,200,2012-11-04 18:58:00
12:58 PM,84.2,35.4,17,30.01,10.0,Variable,3.5,-,N/A,,Clear,0,2012-11-04 19:58:00
1:58 PM,87.3,33.1,14,29.99,10.0,Calm,Calm,-,N/A,,Clear,20,2012-11-04 20:58:00
2:58 PM,88.9,31.1,13,29.97,10.0,SW,3.5,-,N/A,,Clear,220,2012-11-04 21:58:00
3:58 PM,88.9,30.6,12,29.97,10.0,South,5.8,-,N/A,,Clear,170,2012-11-04 22:58:00
4:58 PM,87.8,29.7,12,29.98,10.0,SSW,5.8,-,N/A,,Clear,210,2012-11-04 23:58:00
5:58 PM,80.6,37.0,21,29.98,10.0,SW,5.8,-,N/A,,Clear,230,2012-11-05 00:58:00
6:58 PM,76.1,35.4,23,29.99,10.0,WSW,2.3,-,N/A,,Clear,240,2012-11-05 01:58:00
7:58 PM,71.8,37.2,28,30.01,10.0,NNE,2.3,-,N/A,,Clear,20,2012-11-05 02:58:00
8:58 PM,68.2,37.4,32,30.02,10.0,ENE,2.3,-,N/A,,Clear,60,2012-11-05 03:58:00
9:58 PM,68.4,35.2,30,30.02,10.0,NNE,2.3,-,N/A,,Clear,20,2012-11-05 04:58:00
10:58 PM,69.6,31.5,24,30.03,10.0,North,10.4,-,N/A,,Clear,360,2012-11-05 05:58:00
11:58 PM,65.8,31.1,27,30.04,10.0,North,5.8,-,N/A,,Clear,10,2012-11-05 06:58:00